EW3714 Weather Reports


Display with metric or nautical units.
time (UTC)temp
F
wind
direction
speed
MPH
gust
MPH
rain 1hr
in
rain 24hr
in
rain mn
in
humidity
%
barometer
mb
20260904213611 94 210 1.0 3.0 0.00 0.00 0.00 49 1013.4
20260904213108 95 351 1.0 3.0 0.00 0.00 0.00 50 1013.4
20260904212608 94 326 0.0 3.0 0.00 0.00 0.00 51 1013.4
20260904212103 94 320 1.0 2.0 0.00 0.00 0.00 51 1013.6
20260904211602 93 13 2.0 3.0 0.00 0.00 0.00 50 1013.7
20260904211058 93 31 0.0 4.0 0.00 0.00 0.00 50 1013.5
20260904210557 94 0 2.0 3.0 0.00 0.00 0.00 53 1013.6
20260904210053 95 289 0.0 3.0 0.00 0.00 0.00 51 1013.7
20260904205548 96 14 1.0 2.0 0.00 0.00 0.00 49 1013.8
20260904205045 96 311 0.0 3.0 0.00 0.00 0.00 48 1013.9
20260904204541 96 296 0.0 3.0 0.00 0.00 0.00 47 1014.0
20260904204036 96 240 0.0 2.0 0.00 0.00 0.00 45 1013.8
20260904203532 96 95 1.0 2.0 0.00 0.00 0.00 45 1014.0
20260904203028 96 243 1.0 1.0 0.00 0.00 0.00 46 1014.2
20260904202524 94 257 1.0 2.0 0.00 0.00 0.00 48 1014.4
20260904202020 94 246 0.0 2.0 0.00 0.00 0.00 48 1014.5
20260904201515 93 214 0.0 2.0 0.00 0.00 0.00 48 1014.5
20260904201011 94 346 1.0 2.0 0.00 0.00 0.00 48 1014.4
20260904200509 94 217 0.0 2.0 0.00 0.00 0.00 51 1014.5
20260904200004 94 268 1.0 2.0 0.00 0.00 0.00 54 1014.5
20260904195502 93 218 0.0 3.0 0.00 0.00 0.00 57 1014.8
20260904195001 93 279 2.0 2.0 0.00 0.00 0.00 58 1014.8
20260904194457 90 298 1.0 2.0 0.00 0.00 0.00 62 1014.6
20260904193951 90 104 0.0 3.0 0.00 0.00 0.00 65 1014.8
20260904193447 89 201 0.0 2.0 0.00 0.00 0.00 65 1014.8
20260904192942 89 279 0.0 1.0 0.00 0.00 0.00 66 1014.9
20260904192437 88 63 0.0 1.0 0.00 0.00 0.00 67 1014.8
20260904191933 88 15 0.0 1.0 0.00 0.00 0.00 67 1015.0
20260904191430 88 339 0.0 1.0 0.00 0.00 0.00 67 1015.1
20260904190926 88 25 0.0 1.0 0.00 0.00 0.00 66 1015.1
20260904190426 87 224 0.0 2.0 0.00 0.00 0.00 66 1015.5
20260904185923 87 343 0.0 1.0 0.00 0.00 0.00 70 1015.5
20260904185419 87 0 0.0 1.0 0.00 0.00 0.00 69 1015.5
20260904184918 88 89 0.0 0.0 0.00 0.00 0.00 69 1015.6
20260904184413 88 339 1.0 1.0 0.00 0.00 0.00 71 1015.5
20260904183908 88 235 0.0 2.0 0.00 0.00 0.00 69 1015.6
20260904183403 88 0 0.0 2.0 0.00 0.00 0.00 68 1015.5
20260904182900 87 333 0.0 1.0 0.00 0.00 0.00 70 1015.6
20260904182400 87 0 0.0 2.0 0.00 0.00 0.00 69 1015.6
20260904181855 88 19 0.0 2.0 0.00 0.00 0.00 70 1015.8
20260904181350 88 275 0.0 1.0 0.00 0.00 0.00 68 1015.7
20260904180845 88 48 0.0 2.0 0.00 0.00 0.00 69 1015.7
20260904180340 88 6 1.0 1.0 0.00 0.00 0.00 71 1015.8
20260904175839 89 284 0.0 0.0 0.00 0.00 0.00 70 1015.7
20260904175339 88 34 1.0 1.0 0.00 0.00 0.00 71 1015.8
20260904174838 88 322 0.0 1.0 0.00 0.00 0.00 73 1015.9
20260904174334 87 230 0.0 1.0 0.00 0.00 0.00 72 1016.0
20260904173830 87 25 0.0 1.0 0.00 0.00 0.00 73 1016.0
20260904173326 87 258 0.0 1.0 0.00 0.00 0.00 73 1016.0
20260904172822 87 342 1.0 1.0 0.00 0.00 0.00 73 1016.0
20260904172320 87 352 0.0 2.0 0.00 0.00 0.00 71 1016.1
20260904171816 87 76 0.0 2.0 0.00 0.00 0.00 70 1016.2
20260904171311 87 345 0.0 2.0 0.00 0.00 0.00 72 1016.0
20260904170807 87 311 0.0 1.0 0.00 0.00 0.00 72 1016.1
20260904170303 86 306 0.0 1.0 0.00 0.00 0.00 72 1016.2
20260904165802 86 321 0.0 2.0 0.00 0.00 0.00 72 1016.1
20260904165256 86 313 2.0 2.0 0.00 0.00 0.00 72 1016.2
20260904164756 86 16 2.0 2.0 0.00 0.00 0.00 72 1016.1
20260904164251 86 0 0.0 1.0 0.00 0.00 0.00 73 1016.0
20260904163748 85 44 1.0 2.0 0.00 0.00 0.00 75 1016.0
20260904163243 85 107 1.0 2.0 0.00 0.00 0.00 75 1016.1
20260904162742 85 54 1.0 2.0 0.00 0.00 0.00 75 1016.0
20260904162237 84 141 0.0 2.0 0.00 0.00 0.00 75 1016.0
20260904161732 84 129 0.0 2.0 0.00 0.00 0.00 76 1015.9
20260904161232 84 129 0.0 1.0 0.00 0.00 0.00 76 1016.1
20260904160728 84 21 0.0 2.0 0.00 0.00 0.00 77 1016.0
20260904160224 84 4 1.0 2.0 0.00 0.00 0.00 77 1015.8
20260904155723 84 93 0.0 4.0 0.00 0.00 0.00 77 1015.9
20260904155223 84 213 0.0 2.0 0.00 0.00 0.00 77 1015.7
20260904154722 84 338 1.0 3.0 0.00 0.00 0.00 79 1015.8
20260904154222 83 118 1.0 2.0 0.00 0.00 0.00 80 1015.7
20260904153717 83 81 0.0 2.0 0.00 0.00 0.00 80 1015.7
20260904153213 83 142 0.0 2.0 0.00 0.00 0.00 81 1015.9
20260904152709 83 87 1.0 3.0 0.00 0.00 0.00 81 1015.8
20260904152204 83 100 1.0 1.0 0.00 0.00 0.00 82 1015.6
20260904151659 82 80 0.0 2.0 0.00 0.00 0.00 82 1015.7
20260904151158 82 104 1.0 2.0 0.00 0.00 0.00 82 1015.6
20260904150654 82 54 0.0 2.0 0.00 0.00 0.00 83 1015.6
20260904150149 82 50 0.0 0.0 0.00 0.00 0.00 84 1015.6
20260904145647 82 34 0.0 2.0 0.00 0.00 0.00 84 1015.5
20260904145142 81 113 0.0 1.0 0.00 0.00 0.00 84 1015.4
20260904144638 81 347 0.0 0.0 0.00 0.00 0.00 85 1015.6
20260904144134 81 351 0.0 2.0 0.00 0.00 0.00 86 1015.6
20260904143630 81 44 0.0 1.0 0.00 0.00 0.00 86 1015.8
20260904143126 81 195 0.0 2.0 0.00 0.00 0.00 86 1015.7
20260904142622 81 107 2.0 3.0 0.00 0.00 0.00 87 1015.6
20260904142118 81 322 0.0 3.0 0.00 0.00 0.00 87 1015.5
20260904141612 81 9 0.0 2.0 0.00 0.00 0.00 87 1015.4
20260904141108 81 117 0.0 3.0 0.00 0.00 0.00 87 1015.3
20260904140604 81 170 0.0 2.0 0.00 0.00 0.00 87 1015.6
20260904140103 81 57 0.0 2.0 0.00 0.00 0.00 87 1015.7
20260904135603 81 75 1.0 1.0 0.00 0.00 0.00 88 1015.7
20260904135059 81 20 0.0 2.0 0.00 0.00 0.00 88 1015.5
20260904134554 80 92 0.0 2.0 0.00 0.00 0.00 87 1015.7
20260904134049 81 69 0.0 1.0 0.00 0.00 0.00 88 1015.6
20260904133549 80 95 1.0 2.0 0.00 0.00 0.00 88 1015.5
20260904133045 81 353 0.0 2.0 0.00 0.00 0.00 89 1015.6
20260904132545 80 25 0.0 1.0 0.00 0.00 0.00 89 1015.5
20260904132045 80 49 0.0 1.0 0.00 0.00 0.00 89 1015.6
20260904131544 80 304 0.0 1.0 0.00 0.00 0.00 89 1015.5
20260904131041 80 60 1.0 2.0 0.00 0.00 0.00 90 1015.5
20260904130540 80 15 0.0 1.0 0.00 0.00 0.00 91 1015.6
20260904130035 80 3 1.0 1.0 0.00 0.00 0.00 91 1015.5
20260904125532 80 12 1.0 2.0 0.00 0.00 0.00 91 1015.4
20260904125032 80 36 0.0 1.0 0.00 0.00 0.00 90 1015.5
20260904124527 80 6 0.0 1.0 0.00 0.00 0.00 90 1015.4
20260904124023 80 10 1.0 1.0 0.00 0.00 0.00 89 1015.3
20260904123522 81 41 1.0 3.0 0.00 0.00 0.00 88 1015.1
20260904123019 80 30 0.0 2.0 0.00 0.00 0.00 87 1015.0
20260904122518 80 6 0.0 1.0 0.00 0.00 0.00 87 1015.0
20260904122013 80 13 0.0 0.0 0.00 0.00 0.00 88 1014.9
20260904121509 80 308 0.0 1.0 0.00 0.00 0.00 87 1015.0
20260904121005 80 309 0.0 2.0 0.00 0.00 0.00 87 1014.6
20260904120501 80 36 0.0 2.0 0.00 0.00 0.00 87 1014.8
20260904120001 80 15 0.0 2.0 0.00 0.00 0.00 87 1014.8
20260904115457 80 11 1.0 2.0 0.00 0.00 0.00 87 1014.5
20260904114956 80 335 1.0 1.0 0.00 0.00 0.00 87 1014.5
20260904114452 80 279 0.0 2.0 0.00 0.00 0.00 87 1014.4
20260904113947 80 335 0.0 3.0 0.00 0.00 0.00 87 1014.4
20260904113446 80 269 0.0 2.0 0.00 0.00 0.00 86 1014.4
20260904112945 81 89 0.0 1.0 0.00 0.00 0.00 86 1014.3
20260904112441 81 343 0.0 1.0 0.00 0.00 0.00 86 1014.3
20260904111937 81 159 0.0 1.0 0.00 0.00 0.00 86 1014.2
20260904111432 81 7 0.0 2.0 0.00 0.00 0.00 86 1014.1
20260904110928 81 2 1.0 2.0 0.00 0.00 0.00 85 1014.1
20260904110426 81 9 2.0 2.0 0.00 0.00 0.00 85 1014.1
20260904105922 81 333 0.0 1.0 0.00 0.00 0.00 85 1014.2
20260904105417 81 345 0.0 1.0 0.00 0.00 0.00 85 1013.9
20260904104912 81 331 0.0 2.0 0.00 0.00 0.00 85 1014.1
20260904104407 81 27 1.0 2.0 0.00 0.00 0.00 85 1014.0
20260904103904 81 324 1.0 2.0 0.00 0.00 0.00 85 1014.0
20260904103404 81 44 0.0 1.0 0.00 0.00 0.00 85 1014.1
20260904102901 81 331 0.0 2.0 0.00 0.00 0.00 85 1013.8
20260904102355 81 326 0.0 0.0 0.00 0.00 0.00 84 1013.9
20260904101851 81 55 0.0 2.0 0.00 0.00 0.00 85 1013.8
20260904101348 81 55 0.0 2.0 0.00 0.00 0.00 85 1013.8
20260904100842 81 354 0.0 2.0 0.00 0.00 0.00 84 1013.7
20260904100338 81 186 0.0 2.0 0.00 0.00 0.00 84 1013.8
20260904095833 81 48 1.0 2.0 0.00 0.00 0.00 84 1013.8
20260904095328 81 27 1.0 2.0 0.00 0.00 0.00 84 1013.8
20260904094823 81 180 0.0 1.0 0.00 0.00 0.00 85 1013.6
20260904094318 81 29 0.0 2.0 0.00 0.00 0.00 85 1013.9
20260904093814 81 345 0.0 2.0 0.00 0.00 0.00 85 1013.7
20260904093315 81 15 0.0 1.0 0.00 0.00 0.00 85 1013.8
20260904092810 81 55 0.0 1.0 0.00 0.00 0.00 85 1013.6
20260904092307 81 195 0.0 1.0 0.00 0.00 0.00 85 1013.7
20260904091802 81 17 1.0 2.0 0.00 0.00 0.00 85 1013.7
20260904091302 81 23 1.0 2.0 0.00 0.00 0.00 85 1013.8
20260904090757 81 242 0.0 2.0 0.00 0.00 0.00 84 1013.8
20260904090253 81 19 0.0 1.0 0.00 0.00 0.00 84 1013.6
20260904085748 81 19 1.0 3.0 0.00 0.00 0.00 85 1013.6
20260904085243 81 135 3.0 3.0 0.00 0.00 0.00 84 1013.7
20260904084738 81 55 0.0 2.0 0.00 0.00 0.00 84 1013.8
20260904084234 81 137 3.0 3.0 0.00 0.00 0.00 84 1013.8
20260904083730 81 142 0.0 1.0 0.00 0.00 0.00 84 1013.9
20260904083227 81 89 0.0 2.0 0.00 0.00 0.00 84 1013.7
20260904082726 81 87 0.0 2.0 0.00 0.00 0.00 84 1013.7
20260904082222 81 73 0.0 2.0 0.00 0.00 0.00 84 1013.6
20260904081717 81 119 0.0 4.0 0.00 0.00 0.00 84 1013.7
20260904081212 82 33 2.0 2.0 0.00 0.00 0.00 84 1013.7
20260904080708 82 49 1.0 2.0 0.00 0.00 0.00 84 1013.7
20260904080204 82 32 2.0 2.0 0.00 0.00 0.00 83 1013.7
20260904075700 82 48 2.0 2.0 0.00 0.00 0.00 83 1013.6
20260904075155 82 6 0.0 2.0 0.00 0.00 0.00 83 1013.6
20260904074654 82 80 0.0 3.0 0.00 0.00 0.00 83 1013.5
20260904074148 82 259 0.0 3.0 0.00 0.00 0.00 82 1013.7
20260904073643 82 311 0.0 2.0 0.00 0.00 0.00 82 1013.6
20260904073140 82 66 0.0 2.0 0.00 0.00 0.00 82 1013.9
20260904072636 82 255 1.0 3.0 0.00 0.00 0.00 82 1014.0
20260904072130 82 22 0.0 2.0 0.00 0.00 0.00 82 1013.9
20260904071626 82 326 0.0 2.0 0.00 0.00 0.00 82 1013.9
20260904071121 82 104 0.0 2.0 0.00 0.00 0.00 82 1014.0
20260904070620 82 191 1.0 3.0 0.00 0.00 0.00 81 1014.2
20260904070115 82 10 2.0 2.0 0.00 0.00 0.00 81 1014.1
20260904065609 82 3 2.0 4.0 0.00 0.00 0.00 81 1014.1
20260904065106 82 307 1.0 3.0 0.00 0.00 0.00 81 1014.1
20260904064602 82 317 0.0 1.0 0.00 0.00 0.00 80 1014.2
20260904064101 82 231 0.0 2.0 0.00 0.00 0.00 80 1014.2
20260904063558 82 255 0.0 2.0 0.00 0.00 0.00 79 1014.2
20260904063053 82 27 0.0 1.0 0.00 0.00 0.00 80 1014.0
20260904062549 82 147 0.0 3.0 0.00 0.00 0.00 79 1014.1
20260904062050 82 16 2.0 2.0 0.00 0.00 0.00 79 1014.0
20260904061545 82 218 0.0 2.0 0.00 0.00 0.00 79 1014.1
20260904061042 82 18 2.0 2.0 0.00 0.00 0.00 79 1014.1
20260904060538 82 66 0.0 2.0 0.00 0.00 0.00 80 1014.1
20260904060033 82 37 0.0 2.0 0.00 0.00 0.00 79 1014.0
20260904055529 82 24 1.0 2.0 0.00 0.00 0.00 79 1014.4
20260904055024 82 104 0.0 1.0 0.00 0.00 0.00 79 1014.2
20260904054520 82 17 0.0 2.0 0.00 0.00 0.00 79 1014.0
20260904054015 82 359 1.0 3.0 0.00 0.00 0.00 79 1013.9
20260904053515 82 197 1.0 2.0 0.00 0.00 0.00 78 1014.0
20260904053010 82 175 1.0 3.0 0.00 0.00 0.00 78 1013.8
20260904052506 82 51 0.0 2.0 0.00 0.00 0.00 79 1013.9
20260904052002 82 255 0.0 2.0 0.00 0.00 0.00 78 1014.0
20260904051459 82 345 3.0 3.0 0.00 0.00 0.00 78 1013.9
20260904050957 82 343 0.0 2.0 0.00 0.00 0.00 79 1013.7
20260904050454 82 211 2.0 2.0 0.00 0.00 0.00 78 1013.9
20260904045949 82 180 0.0 2.0 0.00 0.00 0.00 78 1013.8
20260904045450 82 10 0.0 2.0 0.00 0.00 0.00 78 1013.8
20260904044944 82 50 0.0 1.0 0.00 0.00 0.00 78 1014.0
20260904044440 82 50 0.0 2.0 0.00 0.00 0.00 78 1013.9
20260904043936 82 262 1.0 2.0 0.00 0.00 0.00 78 1013.8
20260904043433 82 45 1.0 2.0 0.00 0.00 0.00 78 1013.9
20260904042928 82 50 0.0 1.0 0.00 0.00 0.00 78 1014.0
20260904042424 82 180 0.0 3.0 0.00 0.00 0.00 78 1013.8
20260904041919 82 38 0.0 2.0 0.00 0.00 0.00 78 1013.9
20260904041416 82 25 1.0 2.0 0.00 0.00 0.00 78 1013.9
20260904040912 82 223 0.0 1.0 0.00 0.00 0.00 77 1013.9
20260904040412 82 6 0.0 2.0 0.00 0.00 0.00 78 1013.8
20260904035908 82 212 0.0 0.0 0.00 0.00 0.00 77 1013.7
20260904035403 82 322 0.0 1.0 0.00 0.00 0.00 77 1013.6
20260904034903 82 7 1.0 2.0 0.00 0.00 0.00 77 1013.7
20260904034358 82 23 0.0 2.0 0.00 0.00 0.00 77 1013.9
20260904033854 82 53 0.0 2.0 0.00 0.00 0.00 76 1013.8
20260904033350 82 25 0.0 0.0 0.00 0.00 0.00 76 1013.8
20260904032846 82 195 0.0 1.0 0.00 0.00 0.00 76 1013.7
20260904032346 82 129 0.0 0.0 0.00 0.00 0.00 75 1013.6
20260904031840 82 44 0.0 2.0 0.00 0.00 0.00 75 1013.5
20260904031336 83 323 0.0 2.0 0.00 0.00 0.00 75 1013.6
20260904030832 83 188 0.0 2.0 0.00 0.00 0.00 75 1013.6
20260904030327 83 7 0.0 0.0 0.00 0.00 0.00 74 1013.5
20260904025823 83 348 0.0 2.0 0.00 0.00 0.00 74 1013.7
20260904025319 83 259 0.0 2.0 0.00 0.00 0.00 73 1013.5
20260904024818 83 312 0.0 2.0 0.00 0.00 0.00 73 1013.4
20260904024313 83 233 0.0 1.0 0.00 0.00 0.00 72 1013.5
20260904023810 84 26 1.0 2.0 0.00 0.00 0.00 72 1013.4
20260904023306 84 310 0.0 1.0 0.00 0.00 0.00 71 1013.2
20260904022805 84 154 0.0 2.0 0.00 0.00 0.00 71 1013.2
20260904022305 84 213 1.0 1.0 0.00 0.00 0.00 70 1013.2
20260904021759 84 44 0.0 1.0 0.00 0.00 0.00 70 1013.2
20260904021258 84 75 0.0 2.0 0.00 0.00 0.00 70 1013.3
20260904020754 84 15 0.0 3.0 0.00 0.00 0.00 69 1013.3
20260904020254 84 195 0.0 1.0 0.00 0.00 0.00 68 1012.9
20260904015752 85 44 0.0 2.0 0.00 0.00 0.00 68 1013.0
20260904015248 85 353 2.0 2.0 0.00 0.00 0.00 68 1013.0
20260904014746 85 16 0.0 2.0 0.00 0.00 0.00 67 1012.7
20260904014242 85 315 0.0 2.0 0.00 0.00 0.00 66 1012.6
20260904013738 86 295 1.0 3.0 0.00 0.00 0.00 66 1012.5
20260904013234 86 298 1.0 2.0 0.00 0.00 0.00 65 1012.5
20260904012729 86 110 0.0 2.0 0.00 0.00 0.00 66 1012.3
20260904012228 86 229 0.0 2.0 0.00 0.00 0.00 64 1012.2
20260904011728 86 254 0.0 1.0 0.00 0.00 0.00 64 1012.2
20260904011224 86 299 0.0 2.0 0.00 0.00 0.00 65 1012.2
20260904010718 86 217 0.0 1.0 0.00 0.00 0.00 64 1012.1
20260904010215 87 321 0.0 1.0 0.00 0.00 0.00 64 1012.2
20260904005710 87 22 0.0 2.0 0.00 0.00 0.00 64 1012.4
20260904005206 87 357 0.0 1.0 0.00 0.00 0.00 64 1012.3
20260904004706 87 335 0.0 1.0 0.00 0.00 0.00 63 1012.4
20260904004201 87 191 2.0 2.0 0.00 0.00 0.00 64 1012.3
20260904003656 87 217 0.0 2.0 0.00 0.00 0.00 63 1012.4
20260904003153 88 327 0.0 2.0 0.00 0.00 0.00 63 1012.3
20260904002648 88 219 0.0 3.0 0.00 0.00 0.00 62 1012.2
20260904002143 88 341 0.0 2.0 0.00 0.00 0.00 62 1012.4
20260904001638 89 258 3.0 3.0 0.00 0.00 0.00 61 1012.3
20260904001137 89 309 0.0 2.0 0.00 0.00 0.00 61 1012.0
20260904000633 89 337 0.0 3.0 0.00 0.00 0.00 60 1012.3
20260904000128 90 18 0.0 2.0 0.00 0.00 0.00 60 1012.3
20260903235628 90 356 2.0 2.0 0.00 0.00 0.00 60 1012.2
20260903235124 91 8 0.0 2.0 0.00 0.00 0.00 60 1012.0
20260903234618 91 4 0.0 2.0 0.00 0.00 0.00 60 1012.2
20260903234114 91 11 1.0 2.0 0.00 0.00 0.00 59 1011.9
20260903233611 91 204 2.0 3.0 0.00 0.00 0.00 60 1012.1
20260903233106 91 246 0.0 1.0 0.00 0.00 0.00 61 1011.9
20260903232601 91 272 0.0 2.0 0.00 0.00 0.00 60 1011.9
20260903232056 91 344 0.0 2.0 0.00 0.00 0.00 61 1011.9
20260903231545 91 212 0.0 4.0 0.00 0.00 0.00 61 1011.9
20260903231045 91 269 0.0 2.0 0.00 0.00 0.00 60 1011.9
20260903230541 92 333 0.0 2.0 0.00 0.00 0.00 59 1011.7
20260903230039 93 51 0.0 2.0 0.00 0.00 0.00 59 1011.5
20260903225537 93 330 1.0 2.0 0.00 0.00 0.00 58 1011.6
20260903225034 94 222 1.0 2.0 0.00 0.00 0.00 57 1011.7
20260903224530 95 34 1.0 2.0 0.00 0.00 0.00 57 1011.5
20260903224025 96 227 3.0 3.0 0.00 0.00 0.00 55 1011.4
20260903223525 96 174 0.0 2.0 0.00 0.00 0.00 49 1011.3
20260903223024 97 234 0.0 2.0 0.00 0.00 0.00 49 1011.1
20260903222519 97 15 2.0 2.0 0.00 0.00 0.00 48 1011.2
20260903222018 97 357 1.0 2.0 0.00 0.00 0.00 51 1011.2
20260903221514 97 5 1.0 2.0 0.00 0.00 0.00 51 1011.1
20260903221011 98 323 0.0 2.0 0.00 0.00 0.00 49 1011.1
20260903220510 98 316 0.0 2.0 0.00 0.00 0.00 49 1011.1
20260903220010 98 228 2.0 2.0 0.00 0.00 0.00 48 1011.2
20260903215504 98 203 0.0 4.0 0.00 0.00 0.00 49 1011.1
20260903215003 98 304 0.0 1.0 0.00 0.00 0.00 49 1011.3
20260903214458 98 17 0.0 2.0 0.00 0.00 0.00 50 1011.2
20260903213958 99 3 2.0 2.0 0.00 0.00 0.00 48 1011.4